Weather History for Spokane Fairchild, WA

Change the Weather History Date:

Tuesday, March 25, 2014

  Actual Average Record
Temperature  
Mean Temperature 42 °F -  
Max Temperature 50 °F 48 °F 62 °F (1997)
Min Temperature 33 °F 30 °F 22 °F (2008)
Degree Days  
Heating Degree Days 24    
Moisture  
Dew Point 27 °F    
Average Humidity 61    
Maximum Humidity 91    
Minimum Humidity 49    
Precipitation  
Precipitation 0.00 in - - ()
Sea Level Pressure  
Sea Level Pressure 29.77 in    
Wind  
Wind Speed 9 mph (East)    
Max Wind Speed 14 mph    
Max Gust Speed -    
Visibility 10 miles    
Events      
Averages and records for this station are not official NWS values.
T = Trace of Precipitation, MM = Missing Value Source: NWS Daily Summary

Daily Weather History Graph

Daily Weather History Graph

Search for Another Location

Airport:

Trip Planner

Search our weather history database for the weather conditions in past years. The results will help you decide how hot, cold, wet, or windy it might be!

Date:

Astronomy

Mar. 25, 2014 Rise Set
Actual Time 6:43 AM PDT 7:10 PM PDT
Civil Twilight 6:12 AM PDT 7:41 PM PDT
Nautical Twilight 5:35 AM PDT 8:18 PM PDT
Astronomical Twilight 4:57 AM PDT 8:56 PM PDT
Moon 3:29 AM PDT (3/25) 1:26 PM PDT (3/25)
Length of Visible Light 13h 29m
Length of Day
12h 27m
Waning Crescent, 31% of the Moon is Illuminated
Mar 25
Waning Crescent
Mar 30
New
Apr 7
First Quarter
Apr 15
Full
Apr 22
Last Quarter

Hourly Weather History & Observations

Time (PDT) Temp. Windchill Dew Point Humidity Pressure Visibility Wind Dir Wind Speed Gust Speed Precip Events Conditions
12:42 AM 35.6 °F 29.2 °F 23.0 °F 60% 29.96 in 10.0 mi NE 8.1 mph - N/A   Clear
12:51 AM 37.4 °F 31.4 °F 23.0 °F 56% 29.96 in 10.0 mi NE 8.1 mph - N/A   Clear
12:58 AM 36.9 °F 30.7 °F 23.4 °F 58% 30.00 in 10.0 mi NE 8.1 mph - 0.00 in   Clear
1:58 AM 36.7 °F 29.4 °F 23.4 °F 59% 29.98 in 10.0 mi NE 10.4 mph - N/A   Clear
2:12 AM 35.6 °F 28.6 °F 23.0 °F 60% 29.92 in 10.0 mi ENE 9.2 mph - N/A   Clear
2:22 AM 33.8 °F 25.8 °F 23.0 °F 65% 29.92 in 10.0 mi NE 10.4 mph - N/A   Clear
2:58 AM 36.7 °F 29.4 °F 22.8 °F 57% 29.94 in 10.0 mi NE 10.4 mph - 0.00 in   Clear
3:58 AM 35.2 °F 27.6 °F 22.6 °F 60% 29.91 in 10.0 mi NE 10.4 mph - N/A   Mostly Cloudy
4:41 AM 35.6 °F 27.1 °F 23.0 °F 60% 29.84 in 10.0 mi NE 12.7 mph - N/A   Scattered Clouds
4:58 AM 35.2 °F 28.1 °F 23.4 °F 62% 29.86 in 10.0 mi NE 9.2 mph - 0.00 in   Partly Cloudy
4:59 AM 35.6 °F 28.6 °F 23.0 °F 60% 29.83 in 10.0 mi NE 9.2 mph - N/A   Partly Cloudy
5:58 AM 35.1 °F 26.4 °F 23.2 °F 62% 29.84 in 10.0 mi NE 12.7 mph - 0.00 in   Overcast
6:58 AM 34.5 °F 26.7 °F 23.2 °F 63% 29.82 in 10.0 mi NE 10.4 mph - N/A   Mostly Cloudy
7:46 AM 35.6 °F 27.5 °F 23.0 °F 60% 29.75 in 10.0 mi NE 11.5 mph - N/A   Mostly Cloudy
7:58 AM 36.1 °F 28.2 °F 24.1 °F 62% 29.78 in 10.0 mi ENE 11.5 mph - 0.00 in   Mostly Cloudy
8:01 AM 35.6 °F 28.0 °F 24.8 °F 65% 29.74 in 10.0 mi ENE 10.4 mph - N/A   Mostly Cloudy
8:08 AM 37.4 °F 31.4 °F 24.8 °F 60% 29.74 in 10.0 mi ENE 8.1 mph - N/A   Overcast
8:19 AM 37.4 °F 29.8 °F 24.8 °F 60% 29.73 in 10.0 mi NE 11.5 mph - N/A   Mostly Cloudy
8:58 AM 38.7 °F 32.4 °F 24.3 °F 56% 29.77 in 10.0 mi NE 9.2 mph - 0.00 in   Partly Cloudy
9:58 AM 40.5 °F 34.1 °F 25.0 °F 54% 29.75 in 10.0 mi ENE 10.4 mph - N/A   Partly Cloudy
10:58 AM 43.9 °F 38.8 °F 26.1 °F 50% 29.72 in 10.0 mi NE 9.2 mph - N/A   Mostly Cloudy
11:58 AM 45.1 °F 41.4 °F 27.1 °F 49% 29.70 in 10.0 mi ENE 6.9 mph - N/A   Mostly Cloudy
12:58 PM 49.8 °F - 31.8 °F 50% 29.68 in 10.0 mi SSW 11.5 mph - N/A   Mostly Cloudy
1:58 PM 50.5 °F - 32.0 °F 49% 29.65 in 10.0 mi SSE 10.4 mph - N/A   Mostly Cloudy
2:58 PM 49.3 °F - 34.0 °F 56% 29.64 in 10.0 mi South 13.8 mph - N/A   Overcast
3:58 PM 45.9 °F 41.7 °F 32.7 °F 60% 29.65 in 10.0 mi SSW 8.1 mph - N/A   Overcast
4:58 PM 45.7 °F 41.0 °F 32.9 °F 61% 29.65 in 10.0 mi South 9.2 mph - N/A   Mostly Cloudy
5:58 PM 45.7 °F 42.7 °F 32.0 °F 59% 29.64 in 10.0 mi SSE 5.8 mph - N/A   Mostly Cloudy
6:58 PM 44.1 °F 38.1 °F 32.0 °F 63% 29.65 in 10.0 mi South 11.5 mph - N/A   Mostly Cloudy
7:58 PM 43.5 °F 38.9 °F 30.0 °F 59% 29.64 in 10.0 mi South 8.1 mph - N/A   Mostly Cloudy
8:58 PM 42.4 °F 37.0 °F 31.8 °F 66% 29.63 in 10.0 mi South 9.2 mph - N/A   Scattered Clouds
9:58 PM 38.7 °F 32.9 °F 33.1 °F 80% 29.64 in 10.0 mi South 8.1 mph - N/A   Clear
10:58 PM 38.5 °F 32.1 °F 35.4 °F 89% 29.63 in 10.0 mi South 9.2 mph - N/A   Clear
11:58 PM 37.2 °F 31.2 °F 34.7 °F 91% 29.62 in 10.0 mi South 8.1 mph - N/A   Clear